Regional Weather Roundup
Issued by NWS

Home | Current Version | Previous Version | Graphics & Text | Print | Product List | Glossary On
Versions: 1 2 3 4 5 6 7 8 9 10 11 12 13 14 15 16 17 18 19 20 21 22 23 24 25 26 27 28 29 30 31 32 33 34 35 36 37 38 39 40 41 42 43 44 45 46 47 48 49 50
000
ASUS44 KMEG 272300
RWRTN
TENNESSEE HOURLY STATE WEATHER ROUNDUP
NATIONAL WEATHER SERVICE MEMPHIS TN
600 PM CDT SUN JUL 27 2014

TNZ002-004-019-021-049-052-054-088>092-280000-
WEST TENNESSEE

CITY           SKY/WX    TMP DP  RH WIND       PRES   REMARKS
MEMPHIS INTL   PTSUNNY   91  77  63 SW13      29.94R HX 104
NWS MEMPHIS      N/A     90 N/A N/A MISG        N/A
JACKSON        PTSUNNY   87  77  72 SW9       29.91S HX  99
DYERSBURG      PTSUNNY   88  72  58 SW9       29.90S HX  94
PARIS          SUNNY     88  75  66 W14       29.88F HX  97
SAVANNAH       SUNNY     88  79  74 W8        29.93R HX 102
$$

TNZ008-025-027-028-033-062-065-066-280000-
NORTH MIDDLE TENNESSEE

CITY           SKY/WX    TMP DP  RH WIND       PRES   REMARKS
NASHVILLE      CLOUDY    90  75  61 SW13G20   29.85R HX 100
CLARKSVILLE    PTSUNNY   91  74  57 W17       29.84S HX 100
COOKEVILLE     CLOUDY    88  75  66 SW9       29.87R HX  97
CROSSVILLE     PTSUNNY   83  71  67 SW9G17    29.92S
$$

TNZ061-075-076-078-094-096-097-280000-
SOUTH MIDDLE TENNESSEE

CITY           SKY/WX    TMP DP  RH WIND       PRES   REMARKS
SHELBYVILLE    PTSUNNY   90  75  62 W12       29.90R HX 100
$$

TNZ017-018-042-046-047-280000-
NORTHEAST TENNESSEE

CITY           SKY/WX    TMP DP  RH WIND       PRES   REMARKS
TRI CITIES     TSTM      69  66  90 N5        29.92R
ELIZABETHTON   PTCLDY    70  66  88 CALM      29.92F
$$

TNZ012-013-036-069-073-074-280000-
CENTRAL EAST TENNESSEE

CITY           SKY/WX    TMP DP  RH WIND       PRES   REMARKS
KNOXVILLE      CLOUDY    85  69  58 SW15G25   29.86R
OAK RIDGE      CLOUDY    87  71  58 VRB7      29.87R HX  93
GATLINBURG     CLEAR     84  66  54 W9        29.86S
$$

TNZ083-085-099-280000-
SOUTHEAST TENNESSEE

CITY           SKY/WX    TMP DP  RH WIND       PRES   REMARKS
CHATTANOOGA    MOSUNNY   92  69  47 SW16G25   29.90R HX  97
$$

SKY/WX REPORTED AS FAIR MEANS FEW OR NO CLOUDS BELOW
12 THOUSAND FEET.



USA.gov is the U.S. government's official web portal to all federal, state and local government web resources and services.